Tracking 26325 objects as of 29-Nov-2022
HD Live streaming from Space Station
objects crossing your sky now

COSMOS 1174

Track COSMOS 1174 now!
10-day predictions
COSMOS 1174 is classified as:


NORAD ID: 11765
Int'l Code: 1980-030A
Perigee: 374.2 km
Apogee: 1,139.3 km
Inclination: 66.1 °
Period: 99.8 minutes
Semi major axis: 7127 km
RCS: 4.5129 m2 (large)
Launch date: April 18, 1980
Source: Commonwealth of Independent States (former USSR) (CIS)
Launch site: TYURATAM MISSILE AND SPACE COMPLEX (TTMTR)
aabbcc
Your satellite tracking list
Your tracking list is empty




NASA's NSSDC Master Catalog

Two Line Element Set (TLE):
1 11765U 80030A   22333.15598462  .00002505  00000-0  12853-3 0  9998
2 11765  66.0851 235.3320 0536739 185.6281 173.8637 14.42697225193460
Source of the keplerian elements: AFSPC